Location: Asheville, NC
(35.6000°N, 82.5500°W)
Time: 02:38:59
(UTC-04:00)

LO-87 - Visible Passes

Search period start: 18 July 2018 00:00
Search period end: 28 July 2018 00:00
Orbit: 470 x 494 km, 97.4° (Epoch: 17 July)

Date Brightness Start Highest point End Pass type
(mag) Time Alt. Az. Time Alt. Az. Time Alt. Az.
19 Jul ? 00:52:16 12° NW 00:52:16 12° NW 00:52:36 10° NW visible
20 Jul ? 00:26:07 17° NNW 00:26:07 17° NNW 00:27:00 10° NNW visible
20 Jul ? 23:59:28 17° N 23:59:28 17° N 00:00:27 10° N visible
21 Jul ? 23:32:21 12° NNE 23:32:21 12° NNE 23:32:52 10° NNE visible
23 Jul ? 00:38:53 14° NNW 00:38:53 14° NNW 00:39:23 10° NNW visible
24 Jul ? 00:10:45 16° N 00:10:45 16° N 00:11:35 10° N visible
24 Jul ? 23:42:09 13° NNE 23:42:09 13° NNE 23:42:44 10° NNE visible
26 Jul ? 00:47:06 11° NNW 00:47:06 11° NNW 00:47:16 10° NNW visible
27 Jul ? 00:17:31 14° N 00:17:31 14° N 00:18:07 10° N visible
27 Jul ? 23:47:26 13° NNE 23:47:26 13° NNE 23:47:55 10° NNE visible
